Flag for U.S.A. Weather past 2 weeks in Lincoln, Nebraska, U.S.A.

Now
38 °F

Clear.


Feels Like: 35 °F
Forecast: 39 / 75 °F
Wind: 3 mph from North

Location: Lincoln Municipal Airport

Current Time: Mar 31, 2015 at 8:08:09 AM

Latest Report: Mar 31, 2015 at 6:54 AM


Visibility: 10 mi

Pressure: 30.01 "Hg

Humidity: 73%

Dew point: 30 °F

Location of LincolnLocation

Historic Weather in Lincoln — Graph

°F

Lincoln temperature yesterday

Maximum temperature yesterday: 78 °F (at 4:54 PM)
Minimum temperature yesterday: 34 °F (at 1:54 AM)
Average temperature yesterday: 55 °F

Past Weeks' High & Low Weather Summary

 TemperatureHumidityPressure
High90 °F (Mar 16, 4:54 PM)100% (Mar 25, 4:54 AM)30.54 "Hg (Mar 25, 4:54 AM)
Low22 °F (Mar 27, 7:54 AM)9% (Mar 16, 3:54 PM)29.75 "Hg (Mar 16, 3:54 PM)
Average45 °F59%30.11 "Hg
* Reported Mar 16 6:54 AM — Mar 31 6:54 AM, Lincoln, Weather by CustomWeather, © 2015

Note: Actual official high and low records may vary slightly from our data, if they occured in-between our weather recording intervals... More about our weather records

Advertising

Lincoln weather history for previous 24 hours

 ConditionsComfort  
Time TempWeatherWind HumidityBarometerVisibility
6:54 AM
Tue, Mar 31
38 °FClear.3 mph73%30.01 "Hg10 mi
5:54 AM37 °FClear.5 mph76%29.99 "Hg10 mi
4:54 AM36 °FClear.3 mph79%29.98 "Hg10 mi
3:54 AM39 °FClear.No wind76%29.98 "Hg10 mi
2:54 AM36 °FClear.5 mph79%29.98 "Hg10 mi
1:54 AM44 °FClear.No wind60%29.97 "Hg10 mi
12:54 AM44 °FClear.No wind63%29.96 "Hg10 mi
11:54 PM
Mon, Mar 30
47 °FClear.No wind54%29.96 "Hg10 mi
10:54 PM48 °FClear.No wind56%29.96 "Hg10 mi
9:54 PM49 °FClear.8 mph52%29.96 "Hg9 mi
8:54 PM63 °FClear.3 mph28%29.93 "Hg10 mi
7:54 PM67 °FSunny.3 mph24%29.91 "Hg10 mi
6:54 PM74 °FSunny.7 mph17%29.90 "Hg10 mi
5:54 PM78 °FSunny.14 mph16%29.89 "Hg10 mi
4:54 PM78 °FSunny.14 mph19%29.90 "Hg10 mi
3:54 PM75 °FSunny.14 mph21%29.94 "Hg10 mi
2:54 PM76 °FSunny.22 mph18%29.97 "Hg10 mi
1:54 PM74 °FSunny.22 mph19%30.00 "Hg10 mi
12:54 PM71 °FSunny.23 mph19%30.03 "Hg10 mi
11:54 AM67 °FSunny.21 mph23%30.07 "Hg10 mi
10:54 AM63 °FSunny.17 mph28%30.10 "Hg10 mi
9:54 AM55 °FSunny.16 mph39%30.12 "Hg10 mi
8:54 AM48 °FSunny.9 mph48%30.13 "Hg10 mi
Weather by CustomWeather, © 2015

See weather overviewHow to use our weather pages